User: anonymous   Login
Location: Milton
(43.5183°N, 79.8775°W)
Time: 18:41:13
(UTC+00:00)
Language:

deb Agena D - Orbit

View from above orbital plane
View from above orbital plane
View from above satellite
View from above satellite

Ground track
Ground track

The orbit data is extracted from the following two-line orbital elements,

1  4764U 70025DJ  24146.82150515  .00010588  00000-0  47316-2 0  9994
2  4764  99.5089 128.1817 0040722  68.6984 291.8532 14.22390772719292
Epoch (UTC): 25 May 2024 19:42:58
Eccentricity: 0.0040722
inclination: 99.5089°
perigee height: 788 km
apogee height: 846 km
right ascension of ascending node: 128.1817°
argument of perigee: 68.6984°
revolutions per day: 14.22390772
mean anomaly at epoch: 291.8532°
orbit number at epoch: 71929

The dashed part of the orbit path shows where the satellite is in the earth's shadow,  

DLR